Flag for Germany Weather past 2 weeks in Zittau, Saxony, Germany

Now
68 °F

Mild.


Feels Like: 68 °F
Forecast: 69 / 91 °F
Wind: 3 mph from Southeast

Location: Liberec

Current Time: Jul 4, 2015 at 6:30:02 AM

Latest Report: Jul 4, 2015 at 4:00 AM


Visibility: 1 mi

Pressure: 30.24 "Hg

Humidity: 60%

Dew point: 54 °F

Location of ZittauLocation

Historic Weather in Zittau — Graph

°F

Zittau temperature yesterday

Maximum temperature yesterday: 86 °F (at 5:00 PM)
Minimum temperature yesterday: 64 °F (at 12:00 AM)
Average temperature yesterday: 75 °F

Past Weeks' High & Low Weather Summary

 TemperatureHumidityPressure
High86 °F (Jul 3, 5:00 PM)97% (Jun 20, 11:00 PM)30.30 "Hg (Jun 20, 11:00 PM)
Low42 °F (Jun 25, 2:00 AM)27% (Jul 3, 5:00 PM)29.67 "Hg (Jun 23, 7:00 AM)
Average60 °F71%30.09 "Hg
* Reported Jun 19 4:00 AM — Jul 4 4:00 AM, Zittau, Weather by CustomWeather, © 2015

Note: Actual official high and low records may vary slightly from our data, if they occured in-between our weather recording intervals... More about our weather records

Advertising

Zittau weather history for previous 24 hours

 ConditionsComfort  
Time TempWeatherWind HumidityBarometerVisibility
4:00 AM
Sat, Jul 4
68 °FMild.3 mph60%30.24 "Hg1 mi
3:00 AM69 °FMild.2 mph61%30.24 "Hg12 mi
2:00 AM68 °FMild.3 mph61%30.25 "Hg12 mi
1:00 AM68 °FMild.3 mph57%30.27 "Hg12 mi
12:00 AM68 °FMild.2 mph60%30.27 "Hg12 mi
11:00 PM
Fri, Jul 3
67 °FMild.2 mph64%30.27 "Hg9 mi
10:00 PM70 °FPassing clouds.1 mph56%30.26 "Hg19 mi
9:00 PM74 °FPassing clouds.2 mph49%30.24 "Hg22 mi
8:00 PM82 °FSunny.3 mph38%30.21 "Hg25 mi
7:00 PM84 °FPleasantly warm.3 mph32%30.20 "Hg12 mi
6:00 PM86 °FPleasantly warm.2 mph28%30.20 "Hg12 mi
5:00 PM86 °FPassing clouds.2 mph27%30.21 "Hg25 mi
4:00 PM86 °FPassing clouds.2 mph28%30.22 "Hg25 mi
3:00 PM85 °FPassing clouds.2 mph29%30.24 "Hg25 mi
2:00 PM84 °FPassing clouds.1 mph29%30.25 "Hg25 mi
1:00 PM83 °FSunny.2 mph33%30.26 "Hg25 mi
12:00 PM81 °FSunny.2 mph34%30.27 "Hg25 mi
11:00 AM79 °FSunny.3 mph39%30.28 "Hg25 mi
10:00 AM77 °FSunny.5 mph36%30.28 "Hg22 mi
9:00 AM75 °FSunny.5 mph38%30.28 "Hg19 mi
8:00 AM73 °FSunny.3 mph46%30.29 "Hg16 mi
7:00 AM69 °FMild.3 mph50%30.29 "Hg12 mi
6:00 AM65 °FMild.2 mph59%30.30 "Hg12 mi
Weather by CustomWeather, © 2015

See weather overviewHow to use our weather pages